Weather History for Solenzara, France

Change the Weather History Date:

Thursday, February 21, 2013

  Actual Average (LFKJ) Record (LFKJ)
Temperature  
Mean Temperature 49 °F -  
Max Temperature 59 °F 56 °F 75 °F (2004)
Min Temperature 39 °F 39 °F 33 °F (2005)
Degree Days  
Heating Degree Days 16    
Moisture  
Dew Point 38 °F    
Average Humidity 71    
Maximum Humidity 87    
Minimum Humidity 45    
Precipitation  
Precipitation 0.00 in - - ()
Sea Level Pressure  
Sea Level Pressure 29.73 in    
Wind  
Wind Speed 6 mph ()    
Max Wind Speed 9 mph    
Max Gust Speed -    
Visibility 6.2 miles    
Events      
Averages and records for this station are not official NWS values.
T = Trace of Precipitation, MM = Missing Value Source: Averaged Metar Reports

Daily Weather History Graph

Daily Weather History Graph

Search for Another Location

Airport:

Trip Planner

Search our weather history database for the weather conditions in past years. The results will help you decide how hot, cold, wet, or windy it might be!

Date:

Astronomy

Feb. 21, 2013 Rise Set
Actual Time 7:09 AM CET 6:02 PM CET
Civil Twilight 6:41 AM CET 6:31 PM CET
Nautical Twilight 6:08 AM CET 7:03 PM CET
Astronomical Twilight 5:36 AM CET 7:36 PM CET
Moon 2:00 PM CET (2/21) 4:05 AM CET (2/21)
Length of Visible Light 11h 49m
Length of Day
10h 53m
Waxing Gibbous, 82% of the Moon is Illuminated
Feb 21
Waxing Gibbous
Feb 25
Full
Mar 4
Last Quarter
Mar 11
New
Mar 19
First Quarter

Hourly Weather History & Observations

Time (CET) Temp. Windchill Dew Point Humidity Pressure Visibility Wind Dir Wind Speed Gust Speed Precip Events Conditions
12:00 AM 42.8 °F 38.6 °F 33.8 °F 70% 29.86 in 6.2 mi West 6.9 mph - N/A   Unknown
12:30 AM 41.0 °F 36.4 °F 33.8 °F 76% 29.86 in 6.2 mi West 6.9 mph - N/A   Unknown
1:00 AM 41.0 °F 35.8 °F 33.8 °F 76% 29.83 in 6.2 mi West 8.1 mph - N/A   Unknown
1:30 AM 41.0 °F 37.1 °F 33.8 °F 76% 29.83 in 6.2 mi West 5.8 mph - N/A   Unknown
2:00 AM 41.0 °F 36.4 °F 33.8 °F 76% 29.83 in 6.2 mi West 6.9 mph - N/A   Unknown
2:30 AM 41.0 °F 35.8 °F 33.8 °F 76% 29.83 in 6.2 mi West 8.1 mph - N/A   Unknown
3:00 AM 39.2 °F 34.2 °F 33.8 °F 81% 29.80 in 6.2 mi West 6.9 mph - N/A   Unknown
3:30 AM 39.2 °F 33.6 °F 33.8 °F 81% 29.80 in 6.2 mi West 8.1 mph - N/A   Unknown
4:00 AM 39.2 °F 33.6 °F 33.8 °F 81% 29.80 in 6.2 mi West 8.1 mph - N/A   Unknown
4:30 AM 39.2 °F 33.0 °F 33.8 °F 81% 29.77 in 6.2 mi West 9.2 mph - N/A   Unknown
5:00 AM 39.2 °F 33.0 °F 33.8 °F 81% 29.77 in 6.2 mi West 9.2 mph - N/A   Unknown
5:30 AM 39.2 °F 33.6 °F 33.8 °F 81% 29.77 in 6.2 mi West 8.1 mph - N/A   Unknown
6:00 AM 39.2 °F 33.6 °F 33.8 °F 81% 29.77 in 6.2 mi West 8.1 mph - N/A   Unknown
6:30 AM 39.2 °F 33.6 °F 33.8 °F 81% 29.77 in 6.2 mi West 8.1 mph - N/A   Unknown
7:00 AM 39.2 °F 33.6 °F 33.8 °F 81% 29.77 in 6.2 mi West 8.1 mph - N/A   Unknown
7:30 AM 39.2 °F 35.9 °F 33.8 °F 81% 29.77 in 6.2 mi West 4.6 mph - N/A   Unknown
8:00 AM 41.0 °F 38.0 °F 33.8 °F 76% 29.77 in 6.2 mi West 4.6 mph - N/A   Unknown
8:30 AM 44.6 °F 42.2 °F 35.6 °F 71% 29.77 in 6.2 mi West 4.6 mph - N/A   Unknown
9:00 AM 48.2 °F - 37.4 °F 66% 29.77 in 6.2 mi Variable 2.3 mph - N/A   Partly Cloudy
9:30 AM 53.6 °F - 39.2 °F 58% 29.77 in 6.2 mi Calm Calm - N/A   Unknown
10:00 AM 53.6 °F - 35.6 °F 51% 29.77 in 6.2 mi SSE 3.5 mph - N/A   Unknown
10:30 AM 53.6 °F - 37.4 °F 54% 29.74 in 6.2 mi SE 5.8 mph - N/A   Unknown
11:00 AM 51.8 °F - 39.2 °F 62% 29.74 in 6.2 mi SE 8.1 mph - N/A   Unknown
11:30 AM 53.6 °F - 41.0 °F 62% 29.74 in 6.2 mi SSE 8.1 mph - N/A   Unknown
12:00 PM 53.6 °F - 42.8 °F 67% 29.74 in 6.2 mi East 4.6 mph - N/A   Partly Cloudy
12:30 PM 53.6 °F - 42.8 °F 67% 29.71 in 6.2 mi East 4.6 mph - N/A   Partly Cloudy
1:00 PM 51.8 °F - 42.8 °F 71% 29.71 in 6.2 mi ENE 4.6 mph - N/A   Unknown
1:30 PM 51.8 °F - 42.8 °F 71% 29.71 in 6.2 mi Variable 3.5 mph - N/A   Overcast
2:00 PM 53.6 °F - 42.8 °F 67% 29.68 in 6.2 mi Variable 3.5 mph - N/A   Mostly Cloudy
2:30 PM 53.6 °F - 42.8 °F 67% 29.68 in 6.2 mi Variable 3.5 mph - N/A   Mostly Cloudy
3:00 PM 53.6 °F - 42.8 °F 67% 29.68 in 6.2 mi Variable 3.5 mph - N/A   Overcast
3:30 PM 55.4 °F - 42.8 °F 63% 29.65 in 6.2 mi Variable 2.3 mph - N/A   Mostly Cloudy
4:00 PM 57.2 °F - 42.8 °F 59% 29.65 in 6.2 mi ENE 4.6 mph - N/A   Overcast
4:30 PM 59.0 °F - 37.4 °F 45% 29.65 in 6.2 mi Variable 5.8 mph - N/A   Mostly Cloudy
5:00 PM 57.2 °F - 42.8 °F 59% 29.65 in 6.2 mi North 6.9 mph - N/A   Mostly Cloudy
5:30 PM 53.6 °F - 44.6 °F 72% 29.65 in 6.2 mi ENE 8.1 mph - N/A   Unknown
6:00 PM 51.8 °F - 41.0 °F 67% 29.65 in 6.2 mi NNW 5.8 mph - N/A   Overcast
6:30 PM 50.0 °F - 39.2 °F 66% 29.68 in 6.2 mi North 4.6 mph - N/A   Unknown
7:00 PM 50.0 °F - 37.4 °F 62% 29.68 in 6.2 mi North 8.1 mph - N/A   Overcast
7:30 PM 50.0 °F - 37.4 °F 62% 29.68 in 6.2 mi NNW 5.8 mph - N/A   Overcast
8:00 PM 48.2 °F - 37.4 °F 66% 29.68 in 6.2 mi NNW 5.8 mph - N/A   Unknown
8:30 PM 46.4 °F - 37.4 °F 71% 29.68 in 6.2 mi Variable 2.3 mph - N/A   Unknown
9:00 PM 44.6 °F 42.2 °F 39.2 °F 81% 29.68 in 6.2 mi West 4.6 mph - N/A   Unknown
9:30 PM 42.8 °F 40.1 °F 37.4 °F 81% 29.68 in 6.2 mi West 4.6 mph - N/A   Unknown
10:00 PM 42.8 °F 39.3 °F 37.4 °F 81% 29.68 in 6.2 mi West 5.8 mph - N/A   Unknown
10:30 PM 41.0 °F 37.1 °F 37.4 °F 87% 29.65 in 6.2 mi West 5.8 mph - N/A   Unknown
11:00 PM 41.0 °F 38.0 °F 35.6 °F 81% 29.65 in 6.2 mi WNW 4.6 mph - N/A   Unknown
11:30 PM 39.2 °F 37.0 °F 35.6 °F 87% 29.65 in 6.2 mi WNW 3.5 mph - N/A   Partly Cloudy